Tracking 17145 objects as of 24-May-2015
HD Live streaming from Space Station

CZ-3A DEB

Track CZ-3A DEB now!
CZ-3A DEB is classified as:


NORAD ID: 35557
Int'l Code: 2007-003R
Perigee: 377.8 km
Apogee: 30,517.3 km
Inclination: 23.3 °
Period: 534.6 minutes
Semi major axis: 21818 km
RCS: 0.1574 m2 (medium)
Launch date: February 2, 2007
Source: People's Republic of China (PRC)

Note: This is SATELLITE DEBRIS
Your satellite tracking list
Your tracking list is empty





NASA's NSSDC Master Catalog

Two Line Element Set (TLE):
1 35557U 07003R   15124.66427233  .00041612  00000-0  58136-1 0  9999
2 35557 023.2654 027.6940 6906858 236.7728 037.6145 02.69379755 58196

Source of the keplerian elements: AFSPC

N2YO: 361